Torna al catalogo

USA 24

AttivoMilitareLEO
NORAD 18010·PAYLOAD·🇺🇸 United States

Lanciato May 15, 1987 da Vandenberg Space Force Base

Loading…

Prossimi Passaggi (prossime 24 ore)

TLE

AggiornatoSource: Space-Track

Epoca: Sep 14, 2026, 14:29 UTC

1 18010U 87043F   26257.60395804  .00008103  00000-0  48711-3 0  9995
2 18010  63.2954 108.3610 0778208 106.2804 262.5224 13.87955168357868

Traccia USA 24 in tempo reale con AllMySat

Download on the App Store